timestamp,surface_pressure_avg,surface_temp_avg,battery_voltage,lat,long
2021-03-27 00:09:01+00:00,320.063,3.36,12.81,47.84626,-54.09684
2021-03-27 00:19:01+00:00,314.4697,3.4,12.65,47.84626,-54.09684
2021-03-27 00:29:01+00:00,309.6663,3.67,12.65,47.84626,-54.09684
2021-03-27 00:39:01+00:00,307.3813,3.82,12.65,47.84626,-54.09684
2021-03-27 00:49:01+00:00,297.0364,3.9,12.65,47.84626,-54.09684
2021-03-27 00:59:01+00:00,290.8997,4.56,12.65,47.84626,-54.09684
2021-03-27 01:09:01+00:00,279.0697,4.72,12.65,47.84626,-54.09684
2021-03-27 01:19:01+00:00,270.8181,4.8,12.65,47.84626,-54.09684
2021-03-27 01:29:01+00:00,266.1764,4.9,12.65,47.84626,-54.09684
2021-03-27 01:39:01+00:00,256.2097,4.9,12.65,47.84626,-54.09684
2021-03-27 01:49:01+00:00,246.1698,4.9,12.65,47.84626,-54.09684
2021-03-27 01:59:01+00:00,242.8414,4.89,12.65,47.84626,-54.09684
2021-03-27 02:09:01+00:00,243.0498,4.8,12.65,47.84626,-54.09684
2021-03-27 02:19:01+00:00,234.5731,4.8,12.65,47.84626,-54.09684
2021-03-27 02:29:01+00:00,225.6864,4.78,12.65,47.84626,-54.09684
2021-03-27 02:39:01+00:00,224.9998,4.79,12.65,47.84626,-54.09684
2021-03-27 02:49:01+00:00,221.1097,4.7,12.65,47.84626,-54.09684
2021-03-27 02:59:01+00:00,212.9998,4.49,12.65,47.84626,-54.09684
2021-03-27 03:09:01+00:00,207.6864,3.79,12.65,47.84626,-54.09684
2021-03-27 03:19:01+00:00,209.6298,3.3,12.65,47.84626,-54.09684
2021-03-27 03:29:01+00:00,215.0331,3.3,12.65,47.84626,-54.09684
2021-03-27 03:39:01+00:00,211.1198,3.38,12.65,47.84626,-54.09684
2021-03-27 03:49:01+00:00,206.0164,3.37,12.65,47.84626,-54.09684
2021-03-27 03:59:01+00:00,211.6264,3.5,12.65,47.84626,-54.09684
2021-03-27 04:09:01+00:00,213.6648,3.54,12.65,47.84626,-54.09684
2021-03-27 04:19:01+00:00,210.1465,3.76,12.57,47.84626,-54.09684
2021-03-27 04:29:01+00:00,213.3098,3.7,12.57,47.84626,-54.09684
2021-03-27 04:39:01+00:00,217.7564,3.79,12.57,47.84626,-54.09684
2021-03-27 04:49:01+00:00,217.1131,3.8,12.57,47.84626,-54.09684
2021-03-27 04:59:01+00:00,210.2897,3.7,12.57,47.84626,-54.09684
2021-03-27 05:09:01+00:00,214.4348,3.6,12.57,47.84626,-54.09684
2021-03-27 05:19:01+00:00,213.6598,3.5,12.57,47.84626,-54.09684
2021-03-27 05:29:01+00:00,204.9781,3.4,12.57,47.84626,-54.09684
2021-03-27 05:39:01+00:00,212.8314,3.36,12.57,47.84626,-54.09684
2021-03-27 05:49:01+00:00,232.9281,3.3,12.57,47.84626,-54.09684
2021-03-27 05:59:01+00:00,236.4247,3.28,12.57,47.84626,-54.09684
2021-03-27 06:09:01+00:00,234.0831,3.23,12.57,47.84626,-54.09684
2021-03-27 06:19:01+00:00,236.1331,3.29,12.57,47.84626,-54.09684
2021-03-27 06:29:01+00:00,238.5964,3.3,12.57,47.84626,-54.09684
2021-03-27 06:39:01+00:00,233.7164,3.3,12.57,47.84626,-54.09684
2021-03-27 06:49:01+00:00,236.5381,3.2,12.57,47.84626,-54.09684
2021-03-27 06:59:01+00:00,246.1064,3.11,12.57,47.84626,-54.09684
2021-03-27 07:09:01+00:00,256.4981,3.19,12.57,47.84626,-54.09684
2021-03-27 07:19:01+00:00,259.2531,3.0,12.57,47.84626,-54.09684
2021-03-27 07:29:01+00:00,263.4897,3.1,12.57,47.84626,-54.09684
2021-03-27 07:39:01+00:00,264.7697,3.24,12.57,47.84626,-54.09684
2021-03-27 07:49:01+00:00,279.618,2.99,12.57,47.84626,-54.09684
2021-03-27 07:59:01+00:00,281.3947,2.9,12.57,47.84626,-54.09684
2021-03-27 08:09:01+00:00,282.083,2.82,12.57,47.84626,-54.09684
2021-03-27 08:19:01+00:00,293.7947,2.8,12.49,47.84626,-54.09684
2021-03-27 08:29:01+00:00,317.578,2.7,12.49,47.84626,-54.09684
2021-03-27 08:39:01+00:00,319.028,2.42,12.49,47.84626,-54.09684
2021-03-27 08:49:01+00:00,314.8063,2.43,12.49,47.84626,-54.09684
2021-03-27 08:59:01+00:00,329.5046,2.5,12.49,47.84626,-54.09684
2021-03-27 09:09:01+00:00,348.1696,2.6,12.49,47.84626,-54.09684
2021-03-27 09:19:01+00:00,349.6896,2.5,12.49,47.84626,-54.09684
2021-03-27 09:29:01+00:00,347.1047,2.3,12.49,47.84626,-54.09684
2021-03-27 09:39:01+00:00,375.5945,2.3,12.49,47.84626,-54.09684
2021-03-27 09:49:01+00:00,382.233,2.4,12.49,47.84626,-54.09684
2021-03-27 09:59:01+00:00,369.4579,2.36,12.49,47.84626,-54.09684
2021-03-27 10:09:01+00:00,377.2312,2.3,12.49,47.84626,-54.09684
2021-03-27 10:19:01+00:00,394.2946,2.33,12.49,47.84626,-54.09684
2021-03-27 10:29:01+00:00,395.9979,2.3,12.49,47.84626,-54.09684
2021-03-27 10:39:01+00:00,378.3997,2.3,12.49,47.84626,-54.09684
2021-03-27 10:49:01+00:00,382.0063,2.3,12.49,47.84626,-54.09684
2021-03-27 10:59:01+00:00,384.7047,2.3,12.49,47.84626,-54.09684
2021-03-27 11:09:01+00:00,379.6612,2.3,12.49,47.84626,-54.09684
2021-03-27 11:19:01+00:00,370.7095,2.29,12.49,47.84626,-54.09684
2021-03-27 11:29:01+00:00,364.9464,2.2,12.49,47.84626,-54.09684
2021-03-27 11:39:01+00:00,369.4763,2.2,12.49,47.84626,-54.09684
2021-03-27 11:49:01+00:00,365.543,2.24,12.49,47.84626,-54.09684
2021-03-27 11:59:01+00:00,351.9147,2.2,12.49,47.84626,-54.09684
2021-03-27 12:09:01+00:00,353.0363,2.2,12.49,47.84626,-54.09684
2021-03-27 12:19:01+00:00,351.6179,2.3,12.65,47.84626,-54.09684
2021-03-27 12:29:01+00:00,337.6930000000001,2.3,12.65,47.84626,-54.09684
2021-03-27 12:39:01+00:00,332.6397,2.3,12.65,47.84626,-54.09684
2021-03-27 12:49:01+00:00,329.1546,2.3,12.65,47.84626,-54.09684
2021-03-27 12:59:01+00:00,322.2863,2.29,12.65,47.84626,-54.09684
2021-03-27 13:09:01+00:00,314.1113,2.28,12.65,47.84626,-54.09684
2021-03-27 13:19:01+00:00,312.313,2.2,13.05,47.84626,-54.09684
2021-03-27 13:29:01+00:00,306.6347,2.19,13.05,47.84626,-54.09684
2021-03-27 13:39:01+00:00,288.9948,2.25,13.05,47.84626,-54.09684
2021-03-27 13:49:01+00:00,279.8948,2.27,13.05,47.84626,-54.09684
2021-03-27 13:59:01+00:00,272.7531,2.1,13.05,47.84626,-54.09684
2021-03-27 14:09:01+00:00,271.0531,2.09,13.05,47.84626,-54.09684
2021-03-27 14:19:01+00:00,257.253,2.0,13.21,47.84626,-54.09684
2021-03-27 14:29:01+00:00,242.5798,2.08,13.21,47.84626,-54.09684
2021-03-27 14:39:01+00:00,240.0197,2.1,13.21,47.84626,-54.09684
2021-03-27 14:49:01+00:00,236.57299999999998,2.17,13.21,47.84626,-54.09684
2021-03-27 14:59:01+00:00,219.0147,2.19,13.21,47.84626,-54.09684
2021-03-27 15:09:01+00:00,213.2715,2.19,13.21,47.84626,-54.09684
2021-03-27 15:19:01+00:00,220.7097,2.2,13.29,47.84626,-54.09684
2021-03-27 15:29:01+00:00,208.3914,2.1,13.29,47.84626,-54.09684
2021-03-27 15:39:01+00:00,191.6731,2.07,13.29,47.84626,-54.09684
2021-03-27 15:49:01+00:00,198.7998,2.1,13.29,47.84626,-54.09684
2021-03-27 15:59:01+00:00,202.2532,2.1,13.29,47.84626,-54.09684
2021-03-27 16:09:01+00:00,185.8248,2.0,13.29,47.84626,-54.09684
2021-03-27 16:19:01+00:00,178.6348,2.0,13.68,47.84626,-54.09684
2021-03-27 16:29:01+00:00,191.8349,2.0,13.68,47.84626,-54.09684
2021-03-27 16:39:01+00:00,191.9415,1.9,13.68,47.84626,-54.09684
2021-03-27 16:49:01+00:00,176.4031,1.9,13.68,47.84626,-54.09684
2021-03-27 16:59:01+00:00,176.8781,1.9,13.68,47.84626,-54.09684
2021-03-27 17:09:01+00:00,181.6381,1.9,13.68,47.84626,-54.09684
2021-03-27 17:19:01+00:00,178.1031,1.9,13.6,47.84626,-54.09684
2021-03-27 17:29:01+00:00,176.6365,1.96,13.6,47.84626,-54.09684
2021-03-27 17:39:01+00:00,184.4781,2.0,13.6,47.84626,-54.09684
2021-03-27 17:49:01+00:00,183.4498,1.9,13.6,47.84626,-54.09684
2021-03-27 17:59:01+00:00,183.0682,1.9,13.6,47.84626,-54.09684
2021-03-27 18:09:01+00:00,190.3414,1.85,13.6,47.84626,-54.09684
2021-03-27 18:19:01+00:00,189.4247,1.88,13.37,47.84626,-54.09684
2021-03-27 18:29:01+00:00,190.1731,1.83,13.37,47.84626,-54.09684
2021-03-27 18:39:01+00:00,196.7648,1.83,13.37,47.84626,-54.09684
2021-03-27 18:49:01+00:00,202.4564,1.8,13.37,47.84626,-54.09684
2021-03-27 18:59:01+00:00,204.8681,1.8,13.37,47.84626,-54.09684
2021-03-27 19:09:01+00:00,206.6648,1.8,13.37,47.84626,-54.09684
2021-03-27 19:19:01+00:00,215.1964,1.8,13.6,47.84626,-54.09684
2021-03-27 19:29:01+00:00,228.0998,1.8,13.6,47.84626,-54.09684
2021-03-27 19:39:01+00:00,230.4464,1.8,13.6,47.84626,-54.09684
2021-03-27 19:49:01+00:00,232.6664,1.8,13.6,47.84626,-54.09684
2021-03-27 19:59:01+00:00,247.7364,1.8,13.6,47.84626,-54.09684
2021-03-27 20:09:01+00:00,253.0948,1.8,13.6,47.84626,-54.09684
2021-03-27 20:19:01+00:00,256.0281,1.69,13.53,47.84626,-54.09684
2021-03-27 20:29:01+00:00,266.7981,1.69,13.53,47.84626,-54.09684
2021-03-27 20:39:01+00:00,283.9564,1.64,13.53,47.84626,-54.09684
2021-03-27 20:49:01+00:00,288.6313,1.6,13.53,47.84626,-54.09684
2021-03-27 20:59:01+00:00,295.753,1.56,13.53,47.84626,-54.09684
2021-03-27 21:09:01+00:00,308.173,1.5,13.53,47.84626,-54.09684
2021-03-27 21:19:01+00:00,320.6563,1.5,13.53,47.84626,-54.09684
2021-03-27 21:29:01+00:00,322.3597,1.5,13.53,47.84626,-54.09684
2021-03-27 21:39:01+00:00,325.7963,1.45,13.53,47.84626,-54.09684
2021-03-27 21:49:01+00:00,331.3663,1.41,13.53,47.84626,-54.09684
2021-03-27 21:59:01+00:00,336.7863,1.48,13.53,47.84626,-54.09684
2021-03-27 22:09:01+00:00,343.9713,1.48,13.53,47.84626,-54.09684
2021-03-27 22:19:01+00:00,348.7313,1.43,13.21,47.84626,-54.09684
2021-03-27 22:29:01+00:00,345.5846,1.4,13.21,47.84626,-54.09684
2021-03-27 22:39:01+00:00,344.6779,1.4,13.21,47.84626,-54.09684
2021-03-27 22:49:01+00:00,352.3313,1.4,13.21,47.84626,-54.09684
2021-03-27 22:59:01+00:00,351.4362,1.4,13.21,47.84626,-54.09684
2021-03-27 23:09:01+00:00,342.9562,1.4,13.21,47.84626,-54.09684
2021-03-27 23:19:01+00:00,341.8062,1.41,12.81,47.84626,-54.09684
2021-03-27 23:29:01+00:00,342.7496,1.46,12.81,47.84626,-54.09684
2021-03-27 23:39:01+00:00,336.0479,1.45,12.81,47.84626,-54.09684
2021-03-27 23:49:01+00:00,331.343,1.42,12.81,47.84626,-54.09684
2021-03-27 23:59:01+00:00,335.3113,1.42,12.81,47.84626,-54.09684
